Back to catalog

COSMOS 2317

GLONASS

AliveNavigationMEO
NORAD 23621·PAYLOAD·🇷🇺 Russia

Launched Jul 24, 1995 from Baikonur Cosmodrome

Loading…

Next Passes (next 24 hours)

TLE

AgingSource: Space-Track

Epoch: Aug 30, 2026, 07:45 UTC

1 23621U 95037B   26242.32354999  .00000054  00000-0  00000+0 0  9996
2 23621  65.4814 200.5598 0009281 172.0593   0.4782  2.13101663241832

Track COSMOS 2317 in real time with AllMySat

Download on the App Store